Princeton/Rocky Hill (39N)
Princeton, NJ
Field Elevation: 128
Lat: 40°23.94N  Long: 74°39.54W
CTAF/Unicom Freq: 122.7250
   
     For Weather-by-Phone, call (609)-924-3901
Weather Advisories
10/2/2014 02:20 Z
Altimeter 30.07" Hg
Wind 360° @ 0 KT
Gusts --
Visibility 10 SM
Ceiling FEW017 OVC035
Temperature 17° C (63° F)
Dewpoint 16° C (61° F)
Relative Humidity 94%
Density Altitude --
Condensation Altitude --
  Wind and Runways
Indicated Runway = 28
History
 
 
More Info
All DigiWx sites map
 
NOAA Forecast
 
Airport IQ 5010
(OCNJ) Ocean City
(PN44) Upper Gwynedd Heliport
 
about DigiWx
 
FAA Disclaimer: The data displayed is for advisory purposes only and is not to be used for flight planning or operations. For official data, please call (609)-924-3901 to hear the current automated AWOS voice message.
  METAR 39N 020220Z AUTO 36000KT 10SM FEW017 OVC035 17/16 A3007